OKEAN-3 (21397 NORAD) Tracking and Keplerian Element Data

This shows tracking and keplerian element data for the satellite.

Feedback or suggestion? Click here.




ElementValue
Catalog21397
NameOKEAN-3
Epoch Orbit48740
Epoch Day323.53923022
Epoch Year2018
RAAN4.0403
Inclination82.5225
Eccentricity0.0016464
Argument of Perigee299.1336
Mean Anonmoly60.8236
Mean Motion14.92735038
Decay Rate2.11E-06
L11 21397U 91039A 18323.53923022 .00000211 00000-0 17872-4 0 9990
L22 21397 82.5225 4.0403 0016464 299.1336 60.8236 14.92735038487403

Live tracking and technical data element details for OKEAN-3 (NORAD 21397). OKEAN-3 can be tracked NOW for your location showing map with azimuth and elevation plus other details from your city location.

Track the satellite on the map from your city or location and see movement details for azimuth, elevation, latitude, longitude, range, height, and movement on the map or in text.







IsCatalogInMostPopularTable: catalog: 21397, numindb: 33
Update: records affected: 1



GetName: 21397 OKEAN-3

Hit Count: updated at: Wed, 21 Nov 2018 06:20:02 GMT